AKDT,Max TemperatureF,Mean TemperatureF,Min TemperatureF,Max Dew PointF,MeanDew PointF,Min DewpointF,Max Humidity, Mean Humidity, Min Humidity, Max Sea Level PressureIn, Mean Sea Level PressureIn, Min Sea Level PressureIn, Max VisibilityMiles, Mean VisibilityMiles, Min VisibilityMiles, Max Wind SpeedMPH, Mean Wind SpeedMPH, Max Gust SpeedMPH,PrecipitationIn, CloudCover, Events, WindDirDegrees
2012-5-1,48,42,37,28,20,8,52,39,30,29.65,29.57,29.53,10,10,10,20,13,28,0.00,3,Rain,349
2012-5-2,46,40,33,15,7,3,46,28,21,29.73,29.69,29.64,10,10,10,24,14,36,0.00,0,,328
2012-5-3,45,36,28,27,19,13,65,47,30,29.74,29.70,29.66,10,10,10,12,7,17,0.00,4,,132
2012-5-4,46,38,32,34,30,26,87,71,55,29.88,29.81,29.73,10,10,10,12,4,18,0.00,7,Rain,166
2012-5-5,42,36,32,36,33,28,89,83,73,29.88,29.84,29.74,10,10,6,9,3,,0.06,8,Rain,182
2012-5-6,46,42,39,38,35,31,93,77,61,29.72,29.56,29.41,10,9,4,18,10,28,0.14,8,Rain,323
2012-5-7,48,42,37,37,35,31,93,81,60,29.79,29.74,29.55,10,10,9,12,6,17,0.04,7,Rain,157
2012-5-8,55,48,43,38,32,24,76,58,34,29.70,29.60,29.51,10,10,10,16,10,23,0.00,4,,131
2012-5-9,46,40,35,36,33,31,87,76,63,29.70,29.65,29.55,10,10,6,26,8,37,0.09,8,Rain,190
2012-5-10,43,38,33,37,33,30,93,87,76,29.53,29.44,29.29,10,7,2,18,3,22,1.10,8,Rain-Snow,152
2012-5-11,43,38,35,34,33,32,93,83,70,29.62,29.53,29.26,10,8,2,24,8,31,0.60,8,Rain-Snow,179
2012-5-12,45,38,33,34,32,30,92,82,61,29.77,29.65,29.49,10,8,2,15,4,22,0.26,8,Rain-Snow,143
2012-5-13,44,38,33,34,31,25,92,79,53,29.94,29.85,29.77,10,8,2,22,3,30,0.21,8,Rain-Snow,283
2012-5-14,48,40,35,32,30,27,85,69,50,30.21,30.06,29.90,10,10,6,17,9,29,0.03,6,Rain-Snow,75
2012-5-15,57,44,32,37,30,23,85,61,27,30.32,30.27,30.22,10,10,10,13,8,18,0.00,0,,5
2012-5-16,57,46,37,39,32,27,79,58,36,30.32,30.30,30.28,10,10,10,20,10,25,0.00,0,,16
2012-5-17,51,40,30,39,35,29,92,74,63,30.28,30.19,30.11,10,10,10,12,6,18,0.00,1,,191
2012-5-18,50,42,35,37,35,31,93,75,52,30.10,30.00,29.94,10,10,10,15,4,22,0.01,7,Rain,169
2012-5-19,51,44,37,39,35,31,100,77,50,29.95,29.89,29.84,10,10,9,12,5,18,0.07,8,Rain,92
2012-5-20,50,46,42,41,38,31,89,77,56,29.85,29.80,29.75,10,10,10,8,2,,0.00,8,Rain,175
2012-5-21,57,48,39,44,39,36,93,74,44,29.73,29.62,29.56,10,10,10,12,4,17,0.01,8,Rain,13
2012-5-22,55,49,43,45,43,40,93,78,67,29.91,29.76,29.64,10,10,10,12,6,17,0.01,4,,147
2012-5-23,66,54,41,40,39,37,86,56,37,29.97,29.91,29.88,10,10,10,18,9,25,0.00,0,,348
2012-5-24,53,49,46,45,43,38,93,78,63,30.11,30.07,29.98,10,10,6,15,9,18,0.01,5,Rain,154
2012-5-25,46,45,43,45,43,40,100,91,79,30.08,29.91,29.70,10,10,7,12,4,,0.20,8,Rain,139
2012-5-26,57,48,42,42,38,35,89,71,49,29.70,29.62,29.57,10,10,10,15,9,21,0.01,7,Rain,27
2012-5-27,52,43,35,43,39,33,96,81,66,29.96,29.82,29.70,10,10,10,12,4,,0.00,4,Rain,156
2012-5-28,50,42,34,41,38,33,96,80,61,29.96,29.86,29.75,10,10,10,10,4,,0.02,7,Rain,126
2012-5-29,51,45,39,42,39,35,100,85,59,29.74,29.62,29.47,10,10,8,9,2,,0.08,8,Rain,344
2012-5-30,50,46,44,44,40,35,90,81,66,29.47,29.44,29.38,10,10,6,13,6,21,0.19,8,Rain,294
2012-5-31,52,47,42,43,39,34,96,78,52,29.73,29.60,29.47,10,10,10,9,5,,0.02,8,Rain,142